This is the latest recevied weather packets stored in our database for station/object KD4EED. If no packets are shown the sender has not sent any weather packets the latest 10 day(s).
| Time | Temp. | Humidity | Pressure | Rain* | Wind** | Luminosity | Snow |
|---|---|---|---|---|---|---|---|
| 1788211297 | 30° C | 54% | 1011.1 hPa | - | - | 599 W/m² | - |
| 1788210989 | 30° C | 54% | 1010.8 hPa | - | - | 608 W/m² | - |
| 1788210684 | 29.44° C | 55% | 1011.1 hPa | - | - | 611 W/m² | - |
| 1788210387 | 30° C | 54% | 1011.2 hPa | - | - | 618 W/m² | - |
| 1788210075 | 30° C | 54% | 1010.9 hPa | - | - | 621 W/m² | - |
| 1788209774 | 29.44° C | 55% | 1011.1 hPa | - | - | 630 W/m² | - |
| 1788209471 | 30° C | 54% | 1011 hPa | - | - | 637 W/m² | - |
| 1788209170 | 30° C | 54% | 1011.2 hPa | - | - | 642 W/m² | - |
| 1788208869 | 30° C | 55% | 1011 hPa | - | - | 645 W/m² | - |
| 1788208569 | 30° C | 54% | 1011.3 hPa | - | - | 642 W/m² | - |
| 1788208268 | 30° C | 54% | 1011.1 hPa | - | - | 644 W/m² | - |
| 1788207968 | 30° C | 54% | 1011.1 hPa | - | - | 641 W/m² | - |
| 1788207668 | 29.44° C | 56% | 1011.1 hPa | - | - | 639 W/m² | - |
| 1788207367 | 29.44° C | 56% | 1011 hPa | - | - | 634 W/m² | - |
| 1788207062 | 29.44° C | 55% | 1011.2 hPa | - | - | 632 W/m² | - |
| 1788206757 | 29.44° C | 55% | 1011.3 hPa | - | - | 633 W/m² | - |
| 1788206458 | 29.44° C | 56% | 1011.2 hPa | - | - | 632 W/m² | - |
| 1788206154 | 29.44° C | 56% | 1011.2 hPa | - | - | 624 W/m² | - |
| 1788205849 | 29.44° C | 56% | 1011.2 hPa | - | - | 622 W/m² | - |
| 1788205544 | 29.44° C | 55% | 1011.4 hPa | - | - | 617 W/m² | - |
| 1788205238 | 29.44° C | 54% | 1011.3 hPa | - | - | 617 W/m² | - |
| 1788204933 | 29.44° C | 56% | 1011.4 hPa | - | - | 605 W/m² | - |
| 1788204628 | 29.44° C | 56% | 1011.5 hPa | - | - | 603 W/m² | - |
| 1788204323 | 29.44° C | 56% | 1011.5 hPa | - | - | 596 W/m² | - |
| 1788204018 | 28.89° C | 57% | 1011.5 hPa | - | - | 588 W/m² | - |
* Rain since midnight (hover to see other rain measurements)
** Current wind speed in m/s (hover to see current wind gust speed)